#timestamp,LO_Frequency,Hit,Temp,Hum 
1479812415.9,286046980.9,N,0.0,0.0
1479812435.7,286046983.3,N,0.0,0.0
1479812455.6,286046982.4,N,0.0,0.0
1479812475.4,286046983.0,N,0.0,0.0
1479812495.2,286046983.6,N,0.0,0.0
1479812515.1,286046983.2,N,0.0,0.0
1479812516.0,286046983.2,N,0.0,0.0
1479812535.8,286046982.5,N,0.0,0.0
1479812555.6,286046984.6,N,0.0,0.0
1479812575.5,286046984.3,N,0.0,0.0
1479812595.3,286046983.9,N,0.0,0.0
1479812615.2,286046984.0,N,0.0,0.0
1479812635.9,286046983.8,N,0.0,0.0
1479812655.7,286046986.3,N,0.0,0.0
1479812675.6,286046986.8,N,0.0,0.0
1479812695.4,286046986.2,N,0.0,0.0
1479812715.2,286046986.6,N,0.0,0.0
1479812735.1,286046986.2,N,0.0,0.0
1479812736.0,286046986.2,N,0.0,0.0
1479812755.8,286046988.2,N,0.0,0.0
1479812775.7,286046986.9,N,0.0,0.0
1479812795.5,286046985.4,N,0.0,0.0
1479812815.3,286046983.7,N,0.0,0.0
1479812835.2,286046985.7,N,0.0,0.0
1479812855.0,286046985.4,N,0.0,0.0
1479812855.9,286046985.4,N,0.0,0.0
1479812875.8,286046986.0,N,0.0,0.0
1479812895.6,286046985.6,N,0.0,0.0
1479812915.4,286046983.8,N,0.0,0.0
1479812935.3,286046984.7,N,0.0,0.0
1479812955.1,286046982.4,N,0.0,0.0
1479812975.9,286046982.8,N,0.0,0.0
1479812995.7,286046980.9,N,0.0,0.0
1479813015.5,286046980.9,N,0.0,0.0
1479813035.4,286046981.6,N,0.0,0.0
1479813055.2,286046979.0,N,0.0,0.0
1479813075.0,286046981.7,N,0.0,0.0
1479813075.9,286046981.7,N,0.0,0.0
1479813095.8,286046981.0,N,0.0,0.0
1479813115.6,286046983.2,N,0.0,0.0
1479813135.5,286046982.4,N,0.0,0.0
1479813155.3,286046983.0,N,0.0,0.0
1479813175.1,286046983.6,N,0.0,0.0
1479813195.9,286046981.9,N,0.0,0.0
1479813215.7,286046980.1,N,0.0,0.0
1479813235.5,286046977.3,N,0.0,0.0
1479813255.4,286046979.2,N,0.0,0.0
1479813275.2,286046979.9,N,0.0,0.0
1479813295.1,286046979.9,N,0.0,0.0
1479813296.0,286046979.9,N,0.0,0.0
1479813315.8,286046977.7,N,0.0,0.0
1479813335.6,286046980.3,N,0.0,0.0
1479813355.5,286046977.6,N,0.0,0.0
1479813375.3,286046978.1,N,0.0,0.0
1479813395.2,286046975.7,N,0.0,0.0
1479813415.9,286046978.4,N,0.0,0.0
1479813435.7,286046976.0,N,0.0,0.0
1479813455.6,286046976.5,N,0.0,0.0
1479813475.4,286046977.0,N,0.0,0.0
1479813495.3,286046976.6,N,0.0,0.0
1479813515.1,286046976.7,N,0.0,0.0
1479813516.0,286046976.7,N,0.0,0.0
1479813535.8,286046974.6,N,0.0,0.0
1479813555.7,286046972.7,N,0.0,0.0
1479813575.5,286046973.1,N,0.0,0.0
1479813595.3,286046971.4,N,0.0,0.0
1479813615.2,286046971.2,N,0.0,0.0
1479813635.0,286046971.6,N,0.0,0.0
1479813635.9,286046971.6,N,0.0,0.0
1479813655.8,286046970.9,N,0.0,0.0
1479813675.6,286046972.0,N,0.0,0.0
1479813695.4,286046971.5,N,0.0,0.0
1479813715.3,286046971.6,N,0.0,0.0
1479813735.1,286046974.0,N,0.0,0.0
1479813755.9,286046971.0,N,0.0,0.0
1479813775.7,286046971.9,N,0.0,0.0
1479813795.5,286046969.6,N,0.0,0.0
1479813815.4,286046972.3,N,0.0,0.0
1479813835.2,286046972.3,N,0.0,0.0
1479813855.0,286046972.0,N,0.0,0.0
1479813855.9,286046972.0,N,0.0,0.0
1479813875.8,286046969.5,N,0.0,0.0
1479813895.6,286046969.8,N,0.0,0.0
1479813915.5,286046969.9,N,0.0,0.0
1479813935.3,286046969.9,N,0.0,0.0
1479813955.1,286046968.2,N,0.0,0.0
1479813975.9,286046967.7,N,0.0,0.0
1479813995.7,286046968.0,N,0.0,0.0
1479814015.6,286046967.9,N,0.0,0.0
1479814035.4,286046968.7,N,0.0,0.0
1479814055.2,286046969.1,N,0.0,0.0
1479814075.1,286046967.3,N,0.0,0.0
1479814076.0,286046967.3,N,0.0,0.0
1479814095.8,286046964.6,N,0.0,0.0
1479814115.6,286046964.9,N,0.0,0.0
1479814135.5,286046967.4,N,0.0,0.0
1479814155.3,286046967.0,N,0.0,0.0
1479814175.2,286046966.7,N,0.0,0.0
1479814195.9,286046966.6,N,0.0,0.0
1479814215.7,286046968.4,N,0.0,0.0
1479814235.6,286046966.5,N,0.0,0.0
1479814255.4,286046967.3,N,0.0,0.0
1479814275.2,286046964.6,N,0.0,0.0
1479814295.1,286046965.1,N,0.0,0.0
1479814296.0,286046965.1,N,0.0,0.0
1479814315.8,286046965.8,N,0.0,0.0
1479814335.7,286046965.1,N,0.0,0.0
1479814355.5,286046965.3,N,0.0,0.0
1479814375.3,286046967.5,N,0.0,0.0
1479814395.2,286046964.7,N,0.0,0.0
1479814415.0,286046963.3,N,0.0,0.0
1479814415.9,286046963.3,N,0.0,0.0
1479814435.8,286046962.9,N,0.0,0.0
1479814455.6,286046965.8,N,0.0,0.0
1479814475.4,286046963.1,N,0.0,0.0
1479814495.3,286046963.1,N,0.0,0.0
1479814515.1,286046963.5,N,0.0,0.0
1479814535.9,286046963.1,N,0.0,0.0
1479814555.7,286046963.7,N,0.0,0.0
1479814575.5,286046961.4,N,0.0,0.0
1479814595.4,286046961.4,N,0.0,0.0
1479814615.2,286046961.4,N,0.0,0.0
1479814635.0,286046961.3,N,0.0,0.0
1479814635.9,286046961.3,N,0.0,0.0
1479814655.8,286046962.6,N,0.0,0.0
1479814675.6,286046960.4,N,0.0,0.0
1479814695.5,286046960.3,N,0.0,0.0
1479814715.3,286046960.5,N,0.0,0.0
1479814735.1,286046961.0,N,0.0,0.0
1479814755.9,286046958.3,N,0.0,0.0
1479814775.7,286046958.6,N,0.0,0.0
1479814795.6,286046959.5,N,0.0,0.0
1479814815.4,286046959.1,N,0.0,0.0
1479814835.2,286046959.2,N,0.0,0.0
1479814855.1,286046958.8,N,0.0,0.0
1479814856.0,286046958.8,N,0.0,0.0
1479814875.8,286046959.2,N,0.0,0.0
1479814895.7,286046957.2,N,0.0,0.0
1479814915.5,286046957.4,N,0.0,0.0
1479814935.3,286046957.3,N,0.0,0.0
1479814955.2,286046955.1,N,0.0,0.0
1479814975.9,286046955.5,N,0.0,0.0
1479814995.7,286046956.2,N,0.0,0.0
1479815015.6,286046954.9,N,0.0,0.0
1479815035.4,286046955.5,N,0.0,0.0
1479815055.3,286046956.2,N,0.0,0.0
1479815075.1,286046956.2,N,0.0,0.0
1479815076.0,286046956.2,N,0.0,0.0
1479815095.8,286046953.8,N,0.0,0.0
1479815115.7,286046954.1,N,0.0,0.0
1479815135.5,286046956.3,N,0.0,0.0
1479815155.4,286046954.6,N,0.0,0.0
1479815175.2,286046953.8,N,0.0,0.0
1479815195.0,286046954.5,N,0.0,0.0
1479815195.9,286046954.5,N,0.0,0.0
1479815215.8,286046951.7,N,0.0,0.0
1479815235.6,286046954.8,N,0.0,0.0
1479815255.4,286046954.7,N,0.0,0.0
1479815275.3,286046952.6,N,0.0,0.0
1479815295.1,286046953.1,N,0.0,0.0
1479815315.9,286046950.6,N,0.0,0.0
1479815335.7,286046952.0,N,0.0,0.0
1479815355.5,286046952.8,N,0.0,0.0
1479815375.4,286046952.7,N,0.0,0.0
1479815395.2,286046953.0,N,0.0,0.0
1479815415.0,286046950.1,N,0.0,0.0
1479815416.0,286046950.1,N,0.0,0.0
1479815435.8,286046950.1,N,0.0,0.0
1479815455.6,286046952.9,N,0.0,0.0
1479815475.5,286046950.1,N,0.0,0.0
1479815495.3,286046953.2,N,0.0,0.0
1479815515.1,286046950.3,N,0.0,0.0
1479815535.9,286046950.8,N,0.0,0.0
1479815555.7,286046951.5,N,0.0,0.0
1479815575.6,286046950.4,N,0.0,0.0
1479815595.4,286046948.6,N,0.0,0.0
1479815615.2,286046948.6,N,0.0,0.0
1479815635.1,286046948.5,N,0.0,0.0
1479815636.0,286046948.5,N,0.0,0.0
1479815655.8,286046951.3,N,0.0,0.0
1479815675.7,286046951.3,N,0.0,0.0
1479815695.5,286046948.5,N,0.0,0.0
1479815715.3,286046951.4,N,0.0,0.0
1479815735.2,286046950.7,N,0.0,0.0
1479815755.0,286046948.6,N,0.0,0.0
1479815755.9,286046948.6,N,0.0,0.0
1479815775.7,286046951.5,N,0.0,0.0
1479815795.6,286046950.7,N,0.0,0.0
1479815815.4,286046950.6,N,0.0,0.0
1479815835.3,286046950.8,N,0.0,0.0
1479815855.1,286046950.3,N,0.0,0.0
1479815875.8,286046950.3,N,0.0,0.0
1479815895.7,286046953.2,N,0.0,0.0
1479815915.5,286046950.1,N,0.0,0.0
1479815935.4,286046952.7,N,0.0,0.0
1479815955.2,286046952.7,N,0.0,0.0
1479815975.0,286046952.0,N,0.0,0.0
1479815975.9,286046952.0,N,0.0,0.0
1479815995.8,286046952.5,N,0.0,0.0
